Retour au catalogue

FENGYUN 1C DEB

ActifPO
NORAD 35195·DEBRIS·🇨🇳 China

Lancé May 10, 1999 depuis Taiyuan Satellite Launch Center

Loading…

Prochains Passages (prochaines 24 heures)

TLE

FraisSource: Space-Track

Époque: Sep 13, 2026, 04:35 UTC

1 35195U 99025DPB 26256.19115497  .00001789  00000-0  37645-3 0  9999
2 35195  98.9954  17.0122 0098699 315.4076  43.9210 14.57999615949231

Suivez FENGYUN 1C DEB en temps réel avec AllMySat

Download on the App Store